Trenton, NJ

6:33 PM EDT on June 24, 2017 (GMT -0400)
Trenton Mercer

Weather History for KTTN - May, 2014

Change the Weather History Date:

Tuesday, May 13, 2014

  Actual Average Record
Temperature  
Mean Temperature 63 °F 60 °F  
Max Temperature 73 °F 71 °F 90 °F (1991)
Min Temperature 52 °F 50 °F 39 °F (1939)
Degree Days  
Heating Degree Days 2 6  
Month to date heating degree days 56 98  
Since 1 July heating degree days 5424 5066  
Cooling Degree Days 0 1  
Month to date cooling degree days 17 13  
Year to date cooling degree days 23 21  
Growing Degree Days 12 (Base 50)    
Moisture  
Dew Point 49 °F    
Average Humidity 67    
Maximum Humidity 93    
Minimum Humidity 40    
Precipitation  
Precipitation 0.00 in 0.13 in 1.50 in (2017)
Month to date precipitation 0.69 1.41  
Year to date precipitation 17.88 14.56  
Sea Level Pressure  
Sea Level Pressure 30.15 in    
Wind  
Wind Speed 9 mph (ESE)    
Max Wind Speed 20 mph    
Max Gust Speed 27 mph    
Visibility 9 miles    
Events      
T = Trace of Precipitation, MM = Missing Value Source: NWS Daily Summary

Daily Weather History Graph

Daily Weather History Graph

Search for Another Location

Airport or City:

Trip Planner

Search our weather history database for the weather conditions in past years. The results will help you decide how hot, cold, wet, or windy it might be!

Date:

Astronomy

May. 13, 2014 Rise Set
Actual Time 5:45 AM EDT 8:06 PM EDT
Civil Twilight 5:14 AM EDT 8:37 PM EDT
Nautical Twilight 4:36 AM EDT 9:15 PM EDT
Astronomical Twilight 3:55 AM EDT 9:57 PM EDT
Moon 7:05 PM EDT (5/13) 5:00 AM EDT (5/13)
Length of Visible Light 15h 22m
Length of Day
14h 21m
Waxing Gibbous, 98% of the Moon is Illuminated
May 13
Waxing Gibbous
May 14
Full
May 21
Last Quarter
May 28
New
Jun 5
First Quarter

Hourly Weather History & Observations

Time (EDT) Temp. Dew Point Humidity Pressure Visibility Wind Dir Wind Speed Gust Speed Precip Events Conditions
12:53 AM 69.1 °F 62.1 °F 78% 30.02 in 10.0 mi Calm Calm - N/A   Clear
2:53 AM 64.0 °F 60.1 °F 87% 30.01 in 7.0 mi Calm Calm - N/A   Clear
3:53 AM 64.0 °F 60.1 °F 87% 30.02 in 7.0 mi Calm Calm - N/A   Clear
4:53 AM 63.0 °F 60.1 °F 90% 30.01 in 7.0 mi Calm Calm - N/A   Clear
5:53 AM 64.0 °F 61.0 °F 90% 30.04 in 8.0 mi Calm Calm - N/A   Overcast
6:53 AM 64.9 °F 61.0 °F 87% 30.06 in 8.0 mi Calm Calm - 0.00 in   Overcast
7:53 AM 73.0 °F 60.1 °F 64% 30.09 in 10.0 mi ENE 11.5 mph - N/A   Mostly Cloudy
9:53 AM 64.9 °F 48.0 °F 54% 30.15 in 10.0 mi East 16.1 mph 21.9 mph N/A   Clear
10:53 AM 66.0 °F 46.9 °F 50% 30.16 in 10.0 mi East 10.4 mph - N/A   Clear
12:53 PM 69.1 °F 44.1 °F 40% 30.18 in 10.0 mi ESE 12.7 mph 21.9 mph N/A   Clear
1:53 PM 68.0 °F 44.1 °F 42% 30.18 in 10.0 mi East 10.4 mph 20.7 mph N/A   Clear
2:53 PM 66.0 °F 44.1 °F 45% 30.18 in 10.0 mi SE 10.4 mph 21.9 mph N/A   Clear
3:53 PM 64.9 °F 43.0 °F 45% 30.17 in 10.0 mi ESE 13.8 mph - N/A   Clear
4:53 PM 64.0 °F 42.1 °F 45% 30.18 in 10.0 mi East 16.1 mph - N/A   Clear
5:53 PM 61.0 °F 43.0 °F 52% 30.19 in 10.0 mi ESE 15.0 mph - N/A   Clear
6:53 PM 57.9 °F 41.0 °F 53% 30.19 in 10.0 mi ESE 15.0 mph - N/A   Clear
7:53 PM 55.9 °F 41.0 °F 57% 30.22 in 10.0 mi ESE 10.4 mph - N/A   Clear
8:53 PM 54.0 °F 41.0 °F 62% 30.24 in 10.0 mi ESE 8.1 mph - N/A   Clear
9:53 PM 53.1 °F 41.0 °F 64% 30.26 in 10.0 mi ESE 5.8 mph - N/A   Clear
10:53 PM 52.0 °F 42.1 °F 69% 30.25 in 10.0 mi ESE 11.5 mph - N/A   Partly Cloudy
11:09 PM 52.0 °F 43.0 °F 71% 30.26 in 10.0 mi ESE 10.4 mph - N/A   Mostly Cloudy
11:53 PM 52.0 °F 44.1 °F 74% 30.24 in 10.0 mi ESE 10.4 mph - N/A   Overcast